Regional Weather Roundup
Issued by NWS Boston, MA

Current Version | Previous Version | Text Only | Print | Product List | Glossary Off
Versions: 1 2 3 4 5 6 7 8 9 10 11 12 13 14 15 16 17 18 19 20 21 22 23 24 25 26 27 28 29 30 31 32 33 34 35 36 37 38 39 40 41 42 43 44 45 46 47 48 49 50
000 ASUS41 KBOX 270810 RWRBOX REGIONAL WEATHER ROUNDUP NATIONAL WEATHER SERVICE TAUNTON MA 400 AM EDT THU APR 27 2017 NOTE: "FAIR" INDICATES FEW OR NO CLOUDS BELOW 12,000 FEET WITH NO SIGNIFICANT WEATHER AND/OR OBSTRUCTIONS TO VISIBILITY. MAZALL-270900- EASTERN MASSACHUSETTS CITY SKY/WX TMP DP RH WIND PRES REMARKS BOSTON FOG 50 50 100 NE3 29.86S VSB 1/4 BEVERLY FOG 50 50 100 N3 29.86R VSB 1/2 LAWRENCE CLOUDY 52 51 97 NE3 29.88S FOG BEDFORD CLOUDY 52 49 89 N6 29.86R FOG BLUE HILL N/A 51 50 96 CALM 29.84S NORWOOD CLOUDY 54 52 93 CALM 29.86R MARSHFIELD CLOUDY 52 52 100 VRB3 29.85F PLYMOUTH FOG 52 52 100 N6 29.85S VSB 1/2 TAUNTON FOG 54 53 97 N3 29.85S VSB 1 NEW BEDFORD FOG 55 54 96 CALM 29.83F VSB 1/2 $$ MAZALL-270900- CAPE COD AND THE ISLANDS CITY SKY/WX TMP DP RH WIND PRES REMARKS FALMOUTH N/A N/A N/A N/A MISG N/A HYANNIS LGT RAIN 54 54 100 NE5 29.83F CHATHAM FOG 52 52 100 E5 29.86S VSB 1/2 PROVINCETOWN CLOUDY 51 50 96 CALM 29.86S NANTUCKET FOG 52 50 93 NE6 29.84F VSB 1 MARTHAS VNYRD CLOUDY 53 52 96 NE7 29.84S FOG $$ MAZALL-270900- CENTRAL AND WESTERN MASSACHUSETTS CITY SKY/WX TMP DP RH WIND PRES REMARKS WORCESTER FOG 51 50 96 NE3 29.86R VSB 1/4 FITCHBURG CLOUDY 55 54 96 CALM 29.87S FOG ORANGE CLOUDY 53 53 100 CALM 29.87R SPRINGFIELD CLOUDY 55 55 100 CALM 29.84S FOG WESTFIELD CLOUDY 56 56 100 N3 29.85F NORTH ADAMS CLOUDY 55 52 89 E3 29.85S PITTSFIELD CLOUDY 54 52 93 CALM 29.84F FOG $$ RIZALL-270900- RHODE ISLAND CITY SKY/WX TMP DP RH WIND PRES REMARKS PROVIDENCE CLOUDY 55 55 100 N9 29.85S NEWPORT FOG 55 55 100 N8 29.83S VSB 1/2 BLOCK ISLAND FOG 53 53 100 CALM 29.86R VSB 1/2 SMITHFIELD FOG 53 53 100 NE5 29.85S VSB 3/4 WESTERLY CLOUDY 57 56 96 CALM 29.85S FOG $$ CTZALL-270900- CONNECTICUT CITY SKY/WX TMP DP RH WIND PRES REMARKS BRADLEY INTL CLOUDY 56 55 97 N3 29.85F HARTFORD CLOUDY 57 57 100 N3 29.85S FOG BRIDGEPORT CLOUDY 56 53 90 W3 29.85S FOG DANBURY CLOUDY 56 56 100 CALM 29.86S GROTON CLOUDY 53 52 96 SW5 29.85R FOG NEW HAVEN CLOUDY 55 54 96 CALM 29.85S FOG CHESTER NOT AVBL MERIDEN CLOUDY 58 57 97 CALM 29.86R FOG WILLIMANTIC CLOUDY 58 57 97 CALM 29.86R FOG OXFORD CLOUDY 55 54 94 CALM 29.87S VSB 1/4 $$ MEZ002-015-021-024-NHZ003-005-008-011-012-014-VTZ005-008-270900- NORTHERN NEW ENGLAND CITY SKY/WX TMP DP RH WIND PRES REMARKS PORTLAND ME CLOUDY 49 48 97 NE9G16 29.88S BANGOR ME CLOUDY 53 53 100 SE8 29.92F FOG CONCORD NH FOG 53 52 96 W3 29.87R VSB 3/4 MANCHESTER NH CLOUDY 54 51 90 SE3 29.86S FOG NASHUA NH CLOUDY 53 53 100 CALM 29.87S FOG PORTSMOUTH NH DRIZZLE 50 50 99 E5 29.86S FOG JAFFREY NH FOG 53 53 100 CALM 29.87R VSB 3/4 KEENE NH CLOUDY 54 53 97 E3 29.86F BURLINGTON VT CLEAR 55 52 89 W3 29.81S MT. WASHINGTON FOG 43 43 100 S24 N/A VSB 1/8 $$ NYZ052-076-270900- EASTERN NEW YORK CITY SKY/WX TMP DP RH WIND PRES REMARKS ALBANY CLOUDY 60 54 80 S3 29.84R NEW YORK CITY DRZL/FOG 57 56 96 CALM 29.85R VSB 1/2 $$ ANZALL-270900- MARINE OBSERVATIONS STATION/POSITION TIME TEMP WIND PRES VSBY WAVE AIR SEA DIR/SP/G HT/PER (UTC) (F) (DEG/KT/KT) (MB) (MI) (FT/S) BOSTON BUOY 0650 46 45 340/ 2/ 2 1010.0 5/ 9 BUZZARDS BAY 0700 54 60/ 14/ 14 1010.2F NANTUCKET SOUND 0750 47 1010.5S 2/ 5 MASS BAY-STELLWA 0704 46 45 300/ 4/ 8 1010.1F 5/ 9 ISLE OF SHOALS 0700 46 60/ 8/ 9 1010.8S S OF BLOCK IS 0755 47 N/A 9/10 $$ ......................KEY......................... SKY/WX - SKY CONDITION/PRESENT WEATHER TMP - TEMPERATURE IN FAHRENHEIT DWPT - DEWPOINT IN FAHRENHEIT RH - RELATIVE HUMIDITY IN PERCENT WIND - DIRECTION AND SPEED IN MPH PRES - MEAN SEA LEVEL PRESSURE IN INCHES OF HG WCI - WIND CHILL INDEX VSB - VISIBILITY IN MILES HX - HEAT INDEX TC - TEMPERATURE IN CELSIUS VRB - VARIABLE WIND DIRECTION N/A - NOT AVAILABLE

USA.gov is the U.S. government's official web portal to all federal, state and local government web resources and services.